This is the latest recevied weather packets stored in our database for station/object BMCB-15. If no packets are shown the sender has not sent any weather packets the latest 10 day(s).
| Time | Temp. | Humidity | Pressure | Rain* | Wind** | Luminosity | Snow |
|---|---|---|---|---|---|---|---|
| 1777819840 | 15° C | 90% | 1014.2 hPa | 0 mm | - | 190 W/m² | - |
| 1777819238 | 15° C | 91% | 1014.2 hPa | 0 mm | - | 140 W/m² | - |
| 1777818637 | 15° C | 90% | 1014.2 hPa | 0 mm | - | 140 W/m² | - |
| 1777818038 | 15° C | 91% | 1014.2 hPa | 0 mm | - | 216 W/m² | - |
| 1777812639 | 13.33° C | 97% | 1014.8 hPa | 1.78 mm | - | 208 W/m² | - |
| 1777812038 | 13.33° C | 97% | 1014.8 hPa | 2.29 mm | - | 158 W/m² | - |
| 1777809637 | 12.78° C | 96% | 1014.9 hPa | 2.03 mm | - | 138 W/m² | - |
| 1777807839 | 13.33° C | 94% | 1014.8 hPa | 2.29 mm | - | 130 W/m² | - |
| 1777805439 | 13.33° C | 94% | 1014.8 hPa | 2.29 mm | - | 194 W/m² | - |
| 1777804242 | 13.33° C | 91% | 1014.9 hPa | 1.78 mm | - | 94 W/m² | - |
| 1777800037 | 15.56° C | 71% | 1014.5 hPa | 0 mm | - | 148 W/m² | - |
| 1777798839 | 16.11° C | 70% | 1014.3 hPa | 0 mm | - | 178 W/m² | - |
| 1777797638 | 16.11° C | 68% | 1014.2 hPa | 0 mm | - | 240 W/m² | - |
| 1777794636 | 15.56° C | 73% | 1014 hPa | 0 mm | - | 186 W/m² | - |
| 1777787435 | 13.89° C | 89% | 1013.9 hPa | 0 mm | - | 78 W/m² | - |
| 1777783836 | 13.33° C | 90% | 1013.9 hPa | 0 mm | - | 20 W/m² | - |
| 1777783238 | 13.33° C | 90% | 1014.1 hPa | 0 mm | - | 14 W/m² | - |
| 1777782035 | 13.33° C | 90% | 1014.2 hPa | 0 mm | - | 2 W/m² | - |
| 1777771236 | 13.89° C | 90% | 1014.8 hPa | 0 mm | - | 0 W/m² | - |
| 1777761043 | 15° C | 85% | 1015.9 hPa | 0 mm | - | 0 W/m² | - |
| 1777758646 | 15.56° C | 81% | 1016 hPa | 0 mm | - | 0 W/m² | - |
| 1777757448 | 15.56° C | 82% | 1016.1 hPa | 0 mm | - | 0 W/m² | - |
| 1777747246 | 18.33° C | 71% | 1016.5 hPa | 0 mm | - | 2 W/m² | - |
| 1777744241 | 20.56° C | 67% | 1015.7 hPa | 0 mm | - | 70 W/m² | - |
| 1777743048 | 21.11° C | 65% | 1015.7 hPa | 0 mm | - | 80 W/m² | - |
* Rain latest hour (hover to see other rain measurements)
** Current wind speed in m/s (hover to see current wind gust speed)